Location: Ay?beleni
(36.6500°N, 30.3000°E)
Time: 00:28:00
(UTC+00:00)

Meteor 1-21 Rocket - Pass Details

Date: 09 April 2020
Orbit: 833 x 907 km, 81.2° (Epoch: 06 June)

Event Time Altitude Azimuth Distance (km) Brightness Sun altitude
Rises 17:12:37 0° 349° (NNW) 3,387 7.8 -9.5°
Reaches altitude 10° 17:15:01 10° 347° (NNW) 2,449 7.0 -9.9°
Maximum altitude 17:20:32 73° 264° (W) 874 4.5 -11.0°
Drops below altitude 10° 17:26:03 10° 180° (S) 2,451 6.4 -12.0°
Sets 17:28:28 0° 178° (S) 3,390 7.1 -12.5°
